Regional Weather Roundup
Issued by NWS Sioux Falls, SD

Home | Current Version | Previous Version | Graphics & Text | Print | Product List | Glossary On
Versions: 1 2 3 4 5 6 7 8 9 10 11 12 13 14 15 16 17 18 19 20 21 22 23 24 25 26 27 28 29 30 31 32 33 34 35 36 37 38 39 40 41 42 43 44 45 46 47 48 49 50
000
ASUS43 KFSD 291202
RWRFSD

WEATHER ROUNDUP FOR SE SOUTH DAKOTA/SW MINNESOTA/NW IOWA
NATIONAL WEATHER SERVICE SIOUX FALLS SD
700 AM CDT FRI MAY 29 2015

NOTE: "FAIR" INDICATES FEW OR NO CLOUDS BELOW 12,000 FEET WITH NO
SIGNIFICANT WEATHER AND OR OBSTRUCTIONS TO VISIBILITY.


SDZ038>040-050-052>070-291300-
SOUTHEAST SOUTH DAKOTA

CITY           SKY/WX    TMP DP  RH WIND       PRES   REMARKS
BROOKINGS      CLOUDY    61  57  88 CALM      29.88R
CHAMBERLAIN    CLOUDY    59  58  94 NW13      29.89R
6HR MIN TEMP:  58; 6HR MAX TEMP:  60;

HURON            N/A    N/A N/A N/A MISG      29.87R
MADISON        CLOUDY    63  63 100 S8        29.87R FOG
MITCHELL       CLOUDY    62  60  93 CALM      29.86R
6HR MIN TEMP:  62; 6HR MAX TEMP:  67; 6HR PCP:  0.05;

SIOUX FALLS    CLOUDY    64  62  93 N6        29.85R FOG
6HR MIN TEMP:  64; 6HR MAX TEMP:  67; 6HR PCP:  0.44;

WINNER         CLOUDY    60  55  83 NW10      29.93R
YANKTON        CLOUDY    63  57  82 W9        29.85R
$$

MNZ071-072-080-081-089-090-097-098-291300-
SOUTHWEST MINNESOTA

CITY           SKY/WX    TMP DP  RH WIND       PRES   REMARKS
FAIRMONT       CLOUDY    63  57  82 S9        29.91R
JACKSON        LGT RAIN  63  63 100 S7        29.89R
LUVERNE        CLOUDY    64  63  94 CALM      29.86S FOG
MARSHALL       CLOUDY    63  57  82 S10       29.83S
6HR MIN TEMP:  63; 6HR MAX TEMP:  64; 6HR PCP:  0.18;

MONTEVIDEO     PTSUNNY   63  63 100 N7        29.87R
REDWOOD FALLS  CLOUDY    65  62  90 S12       29.83S
WINDOM         LGT RAIN  63  61  94 SW6       29.87S
WORTHINGTON    CLOUDY    63  57  82 S7        29.87F
$$

IAZ001>003-012>014-020>022-031-032-NEZ013-014-SDZ071-291300-
NORTHWEST IOWA

CITY           SKY/WX    TMP DP  RH WIND       PRES   REMARKS
DENISON        CLOUDY    64  64 100 S14G23    29.87S FOG
ESTHERVILLE    CLOUDY    64  63  96 S7        29.89S
SIOUX CITY     CLOUDY    66  63  90 S8        29.87R
6HR MIN TEMP:  65; 6HR MAX TEMP:  68; 6HR PCP:  0.02;

SPENCER        LGT RAIN  65  64  97 SE5       29.88F
6HR MIN TEMP:  64; 6HR MAX TEMP:  66; 6HR PCP:  0.09;

$$

ABBREVIATIONS USED IN REMARKS
   TC - TEMPERATURE IN CELSIUS
  WCI - WIND CHILL INDEX
   HX - HEAT INDEX
  VSB - VISIBILITY




USA.gov is the U.S. government's official web portal to all federal, state and local government web resources and services.